Printer-friendly version

IAU Minor Planet Center

Minor Planet Center

MPEC 1999-K39: 1999 KQ6

The following Minor Planet Electronic Circular may be linked-to from your own Web pages, but must not otherwise be redistributed electronically.


Read MPEC 1999-K38 Read MPEC 1999-K40


M.P.E.C. 1999-K39                                Issued 1999 May 27, 14:21 UT

     The Minor Planet Electronic Circulars contain information on unusual
         minor planets and routine data on comets.  They are published
   on behalf of Commission 20 of the International Astronomical Union by the
          Minor Planet Center, Smithsonian Astrophysical Observatory,
                          Cambridge, MA 02138, U.S.A.

             BMARSDEN@CFA.HARVARD.EDU or GWILLIAMS@CFA.HARVARD.EDU
          URL http://cfa-www.harvard.edu/iau/mpc.html  ISSN 1523-6714

                                   1999 KQ6

Observations:
     J99K06Q* C1999 05 23.28079 16 17 28.16 +06 58 06.8          17.2 R      699
     J99K06Q  C1999 05 23.29353 16 17 27.89 +06 58 03.5                      699
     J99K06Q  C1999 05 23.30633 16 17 27.61 +06 57 59.9                      699
     J99K06Q  C1999 05 24.85850 16 16 58.00 +06 51 01.5                      557
     J99K06Q  C1999 05 24.86796 16 16 57.75 +06 50 58.6                      557
     J99K06Q  C1999 05 24.87814 16 16 57.54 +06 50 56.0                      046
     J99K06Q  C1999 05 24.88207 16 16 57.50 +06 50 55.5                      046
     J99K06Q  C1999 05 24.88468 16 16 57.38 +06 50 54.8                      046
     J99K06Q  C1999 05 24.88634 16 16 57.60 +06 50 55.6          17.7 V      620
     J99K06Q  C1999 05 24.88752 16 16 57.37 +06 50 53.8          16.2 R      046
     J99K06Q  C1999 05 24.89899 16 16 57.22 +06 50 51.7          17.9        120
     J99K06Q  C1999 05 24.90325 16 16 57.02 +06 50 49.5                      120
     J99K06Q  C1999 05 24.90675 16 16 56.84 +06 50 48.8                      120
     J99K06Q  C1999 05 24.91018 16 16 57.02 +06 50 48.7          17.7 V      620
     J99K06Q  C1999 05 24.93241 16 16 56.29 +06 50 40.5                      120
     J99K06Q  C1999 05 24.93634 16 16 56.36 +06 50 40.9                      620
     J99K06Q  C1999 05 25.07541 16 16 53.66 +06 50 13.6          17.6 V      860
     J99K06Q  C1999 05 25.09105 16 16 53.29 +06 50 09.3          17.5 V      860
     J99K06Q  C1999 05 25.11508 16 16 52.60 +06 50 01.8          17.7 V      860
     J99K06Q  C1999 05 25.55525 16 16 44.32 +06 47 48.2          16.9 R      426
     J99K06Q  C1999 05 25.55997 16 16 44.22 +06 47 47.4          17.0 R      426
     J99K06Q  C1999 05 25.56581 16 16 44.10 +06 47 45.4          17.1 R      426
     J99K06Q  C1999 05 25.57058 16 16 43.96 +06 47 43.7          17.1 R      426
     J99K06Q FC1999 05 25.85190 16 16 38.58 +06 45 52.6                      118
     J99K06Q  C1999 05 25.85245 16 16 38.63 +06 45 52.9          17.4 V      595
     J99K06Q FC1999 05 25.85475 16 16 38.45 +06 45 52.4                      118
     J99K06Q  C1999 05 25.86672 16 16 38.28 +06 45 49.1                      595
     J99K06Q FC1999 05 25.87244 16 16 37.99 +06 45 46.5                      118
     J99K06Q  C1999 05 25.88071 16 16 37.91 +06 45 42.1                      595
     J99K06Q IC1999 05 26.25557 16 16 30.28 +06 43 42.0                      711
     J99K06Q  C1999 05 26.25983 16 16 30.51 +06 43 38.5                      658
     J99K06Q  C1999 05 26.26113 16 16 30.14 +06 43 40.0                      711
     J99K06Q  C1999 05 26.26441 16 16 30.36 +06 43 36.5                      658
     J99K06Q  C1999 05 26.26692 16 16 30.09 +06 43 38.6                      711
     J99K06Q  C1999 05 26.26785 16 16 30.24 +06 43 34.9                      658
     J99K06Q  C1999 05 26.86231 16 16 18.59 +06 40 04.5                      557
     J99K06Q  C1999 05 26.87421 16 16 18.34 +06 40 01.6                      557
     J99K06Q  C1999 05 26.87817 16 16 18.26 +06 40 00.4                      557
     J99K06Q  C1999 05 27.01522 16 16 14.95 +06 39 10.0                      046
     J99K06Q  C1999 05 27.02352 16 16 14.82 +06 39 06.7                      046
     J99K06Q  C1999 05 27.02920 16 16 14.63 +06 39 04.6                      046
     J99K06Q  C1999 05 27.03118 16 16 14.57 +06 39 03.8                      046
     J99K06Q  C1999 05 27.03354 16 16 14.52 +06 39 03.1                      046
     J99K06Q  C1999 05 27.25136 16 16 10.72 +06 37 45.5                      711
     J99K06Q  C1999 05 27.25606 16 16 10.61 +06 37 43.7                      711
     J99K06Q  C1999 05 27.26103 16 16 10.49 +06 37 41.9                      711

Observer details:
046 Klet.  Observers M. Tichy, Z. Moravec.  Measurer M. Tichy.  0.57-m f/5.2
    reflector + CCD.
118 Modra.  Observers A. Galad, P. Koleny.  0.6-m f/5.5 reflector + CCD.
120 Visnjan.  Observer K. Korlevic.  0.41-m f/4.3 reflector + CCD.
426 Woomera.  Observer F. B. Zoltowski.  0.30-m f/3.3 Schmidt-Cassegrain + CCD.
557 Ondrejov.  Observer L. Sarounova.  0.65-m f/3.6 reflector + CCD.
595 Farra d'Isonzo.  Observers G. Lombardi, E. Pettarin, A. Toso.  0.40-m f/4.5
    reflector + CCD
620 Observatorio Astronomico de Mallorca.  Observers A. Lopez, R. Pacheco.
    0.30-m f/3.3 Schmidt-Cassegrain + CCD.
658 Dominion Astrophysical Observatory.  Observer D. D. Balam.  1.82-m
    reflector + CCD.
699 Lowell Observatory-LONEOS.  Observer M. E. Van Ness.  Measurer B. W. Koehn.
    0.59-m LONEOS Schmidt + CCD.
711 McDonald Observatory.  Observer P. J. Shelus.  0.76-m reflector + CCD.
860 Valinhos.  Observer P. R. Holvorcem.  0.20-m f/3.3 reflector + CCD.

Orbital elements:
1999 KQ6
Epoch 1999 May 22.0 TT = JDT 2451320.5                  Williams
M 359.09112              (2000.0)            P               Q
n   0.22338588     Peri.  109.91605     -0.44448361     +0.88508250
a   2.6900823      Node   132.90134     -0.87611645     -0.39740525
e   0.4167829      Incl.   10.86434     -0.18669305     -0.24227676
P   4.41           H   16.6           G   0.15
From 46 observations 1999 May 23-27.

Ephemeris:
1999 KQ6                 a,e,i = 2.69, 0.42, 11                  q = 1.5689
Date    TT    R. A. (2000) Decl.     Delta      r     Elong.  Phase     V
1999 05 22    16 17.87   +07 02.9    0.602    1.569   152.0    17.6    17.4
1999 06 01    16 14.64   +06 01.9    0.602    1.570   151.6    17.9    17.4
1999 06 11    16 12.09   +04 07.7    0.616    1.575   148.8    19.5    17.5
1999 06 21    16 11.57   +01 30.3    0.645    1.586   144.3    22.0    17.7
1999 07 01    16 13.99   -01 34.9    0.688    1.601   138.9    24.7    18.0
1999 07 11    16 19.62   -04 51.9    0.744    1.620   133.3    27.2    18.2
1999 07 21    16 28.44   -08 07.5    0.814    1.644   127.6    29.3    18.5
1999 07 31    16 40.16   -11 11.8    0.895    1.672   122.0    31.0    18.8
1999 08 10    16 54.36   -13 58.5    0.987    1.703   116.6    32.2    19.1
1999 08 20    17 10.66   -16 24.1    1.090    1.737   111.4    32.9    19.4
1999 08 30    17 28.65   -18 26.8    1.203    1.774   106.3    33.1    19.6
1999 09 09    17 47.93   -20 06.2    1.324    1.813   101.2    33.0    19.9
1999 09 19    18 08.22   -21 22.7    1.453    1.855    96.3    32.6    20.1
1999 09 29    18 29.19   -22 17.2    1.588    1.898    91.3    31.9    20.3
1999 10 09    18 50.59   -22 51.0    1.730    1.942    86.4    30.9    20.6
1999 10 19    19 12.21   -23 05.5    1.876    1.988    81.4    29.7    20.7
1999 10 29    19 33.84   -23 02.4    2.025    2.034    76.4    28.3    20.9
1999 11 08    19 55.34   -22 43.3    2.175    2.081    71.3    26.8    21.1
1999 11 18    20 16.60   -22 09.9    2.327    2.129    66.2    25.1    21.2
1999 11 28    20 37.50   -21 24.0    2.477    2.177    61.0    23.4    21.4

Gareth V. Williams           (C) Copyright 1999 MPC           M.P.E.C. 1999-K39

Read MPEC 1999-K38 Read MPEC 1999-K40


Our Web policy. Index to the CBAT/MPC/ICQ pages.


Valid HTML 4.01!